Location: Demmingen
(48.6757°N, 10.4375°E)
Time: 21:53:05
(UTC+00:00)

SL-27 R/B - Pass Details

Date: 23 May 2024
Orbit: 330 x 354 km, 74.7° (Epoch: 14 June)

Event Time Altitude Azimuth Distance (km) Brightness Sun altitude
Exits shadow 01:11:47 13° 131° (SE) 1,103 4.2 -15.9°
Maximum altitude 01:12:58 16° 102° (ESE) 972 4.3 -15.8°
Drops below altitude 10° 01:14:48 10° 60° (ENE) 1,269 5.6 -15.7°
Sets 01:17:11 0° 38° (NE) 2,111 7.6 -15.5°
